When you browse on this site, cookies collect data to enhance your experience and personalize the content and advertising you see.
Visit our Privacy Policy to learn more. By continuing to use the site, you agree to this use of cookies and data.
  • în România
  • Lista ţărilor
  • Pe 7 zile
  • Temperatura apei
  • Hartă satelitară
  • Meteo pe hartă
  • Widget-uri
  • user-avatar
    Intrare

    Meteo pe oră la Novoterskiy

    Astăzi, 19 Martie, Marţi

    Timp Temperatura Precipitaţii Vânt Presiune Umiditate
    00:00 +5°C° 0 mm 1 m/s 735 mmHg 76%
    01:00 +5°C° 0 mm 1 m/s 735 mmHg 78%
    02:00 +5°C° 0 mm 1 m/s 735 mmHg 79%
    03:00 +4°C° 0 mm 1 m/s 735 mmHg 79%
    04:00 +4°C° 0 mm 1 m/s 735 mmHg 79%
    05:00 +4°C° 0 mm 1 m/s 735 mmHg 80%
    06:00 +4°C° 0 mm 1 m/s 735 mmHg 80%
    07:00 +5°C° 0 mm 1 m/s 735 mmHg 76%
    08:00 +5°C° 0 mm 2 m/s 735 mmHg 72%
    09:00 +5°C° 0 mm 3 m/s 735 mmHg 68%
    10:00 +7°C° 0 mm 3 m/s 735 mmHg 63%
    11:00 +8°C° 0 mm 4 m/s 735 mmHg 59%
    12:00 +10°C° 0 mm 4 m/s 734 mmHg 54%
    13:00 +10°C° 0 mm 4 m/s 734 mmHg 53%
    14:00 +11°C° 0 mm 4 m/s 734 mmHg 53%
    15:00 +9°C° 0 mm 5 m/s 734 mmHg 55%
    16:00 +9°C° 0 mm 5 m/s 734 mmHg 58%
    17:00 +8°C° 0 mm 4 m/s 734 mmHg 62%
    18:00 +7°C° 0 mm 4 m/s 734 mmHg 66%
    19:00 +6°C° 0 mm 4 m/s 734 mmHg 70%
    20:00 +7°C° 0 mm 3 m/s 734 mmHg 75%
    21:00 +5°C° 0 mm 3 m/s 734 mmHg 80%
    22:00 +4°C° 0 mm 3 m/s 734 mmHg 82%
    23:00 +4°C° 0 mm 3 m/s 734 mmHg 84%

    Mâine, 20 Martie, Miercuri

    Timp Temperatura Precipitaţii Vânt Presiune Umiditate
    00:00 +3°C° 0 mm 3 m/s 734 mmHg 86%
    01:00 +4°C° 0 mm 2 m/s 734 mmHg 87%
    02:00 +3°C° 0 mm 2 m/s 733 mmHg 88%
    03:00 +3°C° 0 mm 2 m/s 733 mmHg 89%
    04:00 +3°C° 0 mm 2 m/s 733 mmHg 89%
    05:00 +2°C° 0 mm 2 m/s 733 mmHg 90%
    06:00 +2°C° 0 mm 2 m/s 733 mmHg 90%
    07:00 +3°C° 0 mm 2 m/s 733 mmHg 84%
    08:00 +4°C° 0 mm 3 m/s 733 mmHg 78%
    09:00 +5°C° 0 mm 3 m/s 733 mmHg 72%
    10:00 +6°C° 0 mm 4 m/s 732 mmHg 67%
    11:00 +7°C° 0 mm 4 m/s 732 mmHg 62%
    12:00 +10°C° 0 mm 4 m/s 732 mmHg 58%
    13:00 +10°C° 0 mm 5 m/s 732 mmHg 56%
    14:00 +10°C° 0 mm 5 m/s 732 mmHg 54%
    15:00 +12°C° 0 mm 5 m/s 731 mmHg 52%
    16:00 +11°C° 0 mm 4 m/s 732 mmHg 56%
    17:00 +10°C° 0 mm 4 m/s 732 mmHg 59%
    18:00 +8°C° 0 mm 4 m/s 732 mmHg 63%
    19:00 +8°C° 0 mm 4 m/s 732 mmHg 67%
    20:00 +8°C° 0 mm 3 m/s 733 mmHg 71%
    21:00 +7°C° 0 mm 3 m/s 733 mmHg 75%
    22:00 +6°C° 0 mm 2 m/s 733 mmHg 77%
    23:00 +6°C° 0 mm 2 m/s 732 mmHg 80%

    Poimâine, 21 Martie, Joi

    Timp Temperatura Precipitaţii Vânt Presiune Umiditate
    00:00 +5°C° 0 mm 2 m/s 732 mmHg 82%
    01:00 +5°C° 0 mm 2 m/s 732 mmHg 83%
    02:00 +4°C° 0 mm 2 m/s 732 mmHg 84%
    03:00 +5°C° 0 mm 1 m/s 732 mmHg 85%
    04:00 +5°C° 0 mm 1 m/s 732 mmHg 85%
    05:00 +5°C° 0 mm 1 m/s 732 mmHg 84%
    06:00 +4°C° 0 mm 1 m/s 733 mmHg 84%
    07:00 +6°C° 0 mm 1 m/s 733 mmHg 78%
    08:00 +8°C° 0 mm 1 m/s 733 mmHg 72%
    09:00 +9°C° 0 mm 1 m/s 733 mmHg 65%
    10:00 +10°C° 0 mm 1 m/s 733 mmHg 61%
    11:00 +12°C° 0 mm 1 m/s 733 mmHg 56%
    12:00 +13°C° 0 mm 1 m/s 733 mmHg 52%
    13:00 +14°C° 0 mm 1 m/s 733 mmHg 50%
    14:00 +14°C° 0 mm 2 m/s 732 mmHg 49%
    15:00 +15°C° 0 mm 2 m/s 732 mmHg 48%
    16:00 +14°C° 0 mm 2 m/s 732 mmHg 51%
    17:00 +14°C° 0 mm 2 m/s 732 mmHg 54%
    18:00 +12°C° 0 mm 3 m/s 732 mmHg 57%
    19:00 +11°C° 0 mm 3 m/s 732 mmHg 61%
    20:00 +10°C° 0 mm 4 m/s 733 mmHg 65%
    21:00 +8°C° 0 mm 4 m/s 733 mmHg 69%
    22:00 +8°C° 0 mm 4 m/s 733 mmHg 71%
    23:00 +7°C° 0 mm 4 m/s 733 mmHg 73%

    22 Martie, Vineri

    Timp Temperatura Precipitaţii Vânt Presiune Umiditate
    00:00 +7°C° 0 mm 4 m/s 733 mmHg 75%
    01:00 +7°C° 0 mm 4 m/s 733 mmHg 76%
    02:00 +6°C° 0 mm 4 m/s 733 mmHg 77%
    03:00 +6°C° 0 mm 4 m/s 733 mmHg 77%
    04:00 +6°C° 0.1 mm 4 m/s 733 mmHg 79%
    05:00 +6°C° 0.1 mm 5 m/s 733 mmHg 81%
    06:00 +5°C° 0.1 mm 5 m/s 733 mmHg 83%
    07:00 +4°C° 0.1 mm 6 m/s 734 mmHg 75%
    08:00 +5°C° 0.1 mm 6 m/s 734 mmHg 68%
    09:00 +5°C° 0.1 mm 7 m/s 734 mmHg 60%
    10:00 +6°C° 0 mm 7 m/s 734 mmHg 55%
    11:00 +7°C° 0 mm 8 m/s 734 mmHg 50%
    12:00 +9°C° 0 mm 8 m/s 734 mmHg 45%
    13:00 +9°C° 0 mm 8 m/s 734 mmHg 43%
    14:00 +10°C° 0 mm 8 m/s 733 mmHg 42%
    15:00 +10°C° 0 mm 9 m/s 733 mmHg 41%
    16:00 +9°C° 0 mm 8 m/s 733 mmHg 45%
    17:00 +8°C° 0 mm 6 m/s 733 mmHg 48%
    18:00 +7°C° 0 mm 5 m/s 733 mmHg 52%
    19:00 +7°C° 0 mm 5 m/s 733 mmHg 56%
    20:00 +6°C° 0 mm 4 m/s 733 mmHg 60%
    21:00 +5°C° 0 mm 3 m/s 734 mmHg 65%
    22:00 +5°C° 0 mm 3 m/s 733 mmHg 67%
    23:00 +4°C° 0 mm 3 m/s 733 mmHg 69%

    23 Martie, Sâmbătă

    Timp Temperatura Precipitaţii Vânt Presiune Umiditate
    00:00 +5°C° 0 mm 2 m/s 732 mmHg 72%
    01:00 +4°C° 0 mm 3 m/s 732 mmHg 73%
    02:00 +3°C° 0 mm 3 m/s 731 mmHg 74%
    03:00 +3°C° 0 mm 3 m/s 731 mmHg 76%
    04:00 +3°C° 0 mm 3 m/s 730 mmHg 72%
    05:00 +4°C° 0 mm 3 m/s 730 mmHg 69%
    06:00 +4°C° 0 mm 3 m/s 729 mmHg 66%
    07:00 +5°C° 0.3 mm 4 m/s 729 mmHg 63%
    08:00 +5°C° 0.3 mm 4 m/s 729 mmHg 61%
    09:00 +6°C° 0.3 mm 5 m/s 728 mmHg 58%
    10:00 +5°C° 0.7 mm 6 m/s 728 mmHg 61%
    11:00 +5°C° 0.7 mm 7 m/s 728 mmHg 64%
    12:00 +5°C° 0.7 mm 8 m/s 728 mmHg 67%
    13:00 +5°C° 0.9 mm 9 m/s 728 mmHg 69%
    14:00 +5°C° 0.9 mm 9 m/s 728 mmHg 70%
    15:00 +5°C° 0.9 mm 10 m/s 728 mmHg 72%
    16:00 +5°C° 0.1 mm 9 m/s 729 mmHg 70%
    17:00 +4°C° 0.1 mm 8 m/s 729 mmHg 68%
    18:00 +4°C° 0.1 mm 6 m/s 729 mmHg 65%
    19:00 +3°C° 0 mm 5 m/s 730 mmHg 68%
    20:00 +2°C° 0 mm 5 m/s 730 mmHg 71%
    21:00 +3°C° 0 mm 4 m/s 731 mmHg 74%
    22:00 +2°C° 0.1 mm 3 m/s 731 mmHg 74%
    23:00 +2°C° 0.1 mm 3 m/s 731 mmHg 75%

    24 Martie, Duminică

    Timp Temperatura Precipitaţii Vânt Presiune Umiditate
    00:00 +2°C° 0.1 mm 3 m/s 731 mmHg 76%
    01:00 +1°C° 0 mm 3 m/s 732 mmHg 76%
    02:00 +1°C° 0 mm 3 m/s 732 mmHg 77%
    03:00 +1°C° 0 mm 3 m/s 732 mmHg 77%
    04:00 +1°C° 0 mm 3 m/s 732 mmHg 78%
    05:00 +2°C° 0 mm 2 m/s 733 mmHg 79%
    06:00 +1°C° 0 mm 2 m/s 733 mmHg 80%
    07:00 +1°C° 0 mm 3 m/s 733 mmHg 75%
    08:00 +2°C° 0 mm 3 m/s 733 mmHg 69%
    09:00 +3°C° 0 mm 3 m/s 733 mmHg 64%
    10:00 +4°C° 0 mm 3 m/s 733 mmHg 60%
    11:00 +5°C° 0 mm 3 m/s 733 mmHg 56%
    12:00 +7°C° 0 mm 3 m/s 733 mmHg 51%
    13:00 +6°C° 0 mm 4 m/s 733 mmHg 49%
    14:00 +7°C° 0 mm 4 m/s 733 mmHg 47%
    15:00 +8°C° 0 mm 5 m/s 732 mmHg 45%
    16:00 +7°C° 0 mm 4 m/s 733 mmHg 48%
    17:00 +7°C° 0 mm 4 m/s 733 mmHg 51%
    18:00 +7°C° 0 mm 3 m/s 733 mmHg 54%
    19:00 +5°C° 0 mm 3 m/s 733 mmHg 58%
    20:00 +5°C° 0 mm 2 m/s 734 mmHg 62%
    21:00 +4°C° 0 mm 2 m/s 734 mmHg 65%
    22:00 +4°C° 0 mm 2 m/s 734 mmHg 66%
    23:00 +4°C° 0 mm 2 m/s 734 mmHg 66%
    Arată mai mult